TimePST,TemperatureF,Dew PointF,Humidity,Sea Level PressureIn,VisibilityMPH,Wind Direction,Wind SpeedMPH,Gust SpeedMPH,PrecipitationIn,Events,Conditions,WindDirDegrees,DateUTC
12:56 AM,57.9,57.9,100,30.14,10.0,Calm,Calm,-,0.00,Rain,Light Rain,0,2013-02-03 08:56:00
1:43 AM,57.2,57.2,100,30.15,10.0,Calm,Calm,-,0.00,Rain,Light Rain,0,2013-02-03 09:43:00
1:56 AM,55.9,55.9,100,30.14,10.0,Calm,Calm,-,0.00,Rain,Light Rain,0,2013-02-03 09:56:00
2:56 AM,59.9,52.0,75,30.12,10.0,East,6.9,-,0.00,,Overcast,90,2013-02-03 10:56:00
3:56 AM,59.0,50.0,72,30.11,10.0,ESE,5.8,-,N/A,,Overcast,110,2013-02-03 11:56:00
4:56 AM,59.0,45.9,62,30.11,10.0,SE,4.6,-,N/A,,Scattered Clouds,140,2013-02-03 12:56:00
5:56 AM,59.9,41.9,51,30.09,10.0,SSE,5.8,-,N/A,,Clear,160,2013-02-03 13:56:00
6:56 AM,55.4,44.6,67,30.12,10.0,East,5.8,-,N/A,,Clear,100,2013-02-03 14:56:00
7:56 AM,59.0,46.9,64,30.11,10.0,East,5.8,-,N/A,,Clear,80,2013-02-03 15:56:00
8:56 AM,65.8,47.8,52,30.11,10.0,ESE,4.6,-,N/A,,Clear,110,2013-02-03 16:56:00
9:56 AM,69.8,42.8,38,30.11,10.0,Variable,4.6,-,N/A,,Clear,0,2013-02-03 17:56:00
10:56 AM,72.0,43.9,36,30.10,10.0,NE,4.6,-,N/A,,Clear,50,2013-02-03 18:56:00
11:56 AM,70.9,41.9,35,30.06,10.0,West,4.6,-,N/A,,Clear,270,2013-02-03 19:56:00
12:56 PM,73.4,42.8,33,30.03,10.0,South,3.5,-,N/A,,Clear,170,2013-02-03 20:56:00
1:56 PM,74.8,41.9,31,30.00,10.0,West,5.8,-,N/A,,Clear,280,2013-02-03 21:56:00
2:56 PM,74.8,41.9,31,29.99,10.0,Variable,5.8,-,N/A,,Clear,0,2013-02-03 22:56:00
3:56 PM,71.6,44.6,38,30.01,10.0,West,9.2,-,N/A,,Clear,260,2013-02-03 23:56:00
4:56 PM,66.9,45.0,45,30.00,10.0,West,9.2,-,N/A,,Clear,260,2013-02-04 00:56:00
5:56 PM,63.9,45.0,50,30.00,10.0,WSW,3.5,-,N/A,,Clear,250,2013-02-04 01:56:00
6:56 PM,53.6,44.6,72,30.03,10.0,Calm,Calm,-,N/A,,Clear,0,2013-02-04 02:56:00
7:56 PM,52.9,43.9,71,30.04,10.0,Calm,Calm,-,N/A,,Clear,0,2013-02-04 03:56:00
8:56 PM,48.9,43.9,83,30.05,10.0,Calm,Calm,-,N/A,,Clear,0,2013-02-04 04:56:00
9:56 PM,44.6,42.8,93,30.07,10.0,Calm,Calm,-,N/A,,Clear,0,2013-02-04 05:56:00
10:56 PM,46.9,45.9,96,30.06,10.0,Calm,Calm,-,N/A,,Clear,0,2013-02-04 06:56:00
11:56 PM,41.9,41.9,100,30.07,10.0,Calm,Calm,-,N/A,,Clear,0,2013-02-04 07:56:00